Theta_e
309 309 308 308 308 308 308 307 307 308 309 310 310 311 309 308 309 312 311 310 312 311 313 325 323 325 327 329 330 330 331 331 330 329 330 331 331 331 331 331 331 331 332 331 330
307 307 308 307 308 308 308 308 308 308 308 308 309 309 308 307 313 313 311 308 308 309 312 322 322 323 329 330 331 332 332 330 330 330 330 330 331 330 331 331 331 330 331 330 331
307 307 307 307 307 307 307 307 308 308 308 308 307 308 308 309 313 312 314 310 311 308 310 318 318 324 327 328 331 332 333 332 332 330 330 330 331 330 330 331 330 330 330 331 331
305 306 306 306 307 307 307 307 307 307 308 308 308 307 307 311 312 318 311 310 312 321 312 316 319 321 323 326 329 332 332 332 331 331 331 331 331 331 331 331 330 330 329 329 330
304 305 305 305 306 307 306 306 307 307 307 307 307 307 309 312 311 310 314 313 312 321 315 318 319 322 326 325 326 330 331 331 331 331 331 331 332 332 331 330 330 329 328 328 328
304 304 305 306 305 306 306 306 305 305 306 307 307 307 309 310 309 310 311 311 311 314 319 317 318 321 327 327 327 327 327 329 330 331 332 331 331 330 330 329 327 326 326 326 326
304 304 305 305 305 306 306 306 305 301 303 307 308 308 310 309 307 308 308 310 311 310 315 317 316 320 325 325 325 325 327 327 329 329 330 330 330 329 327 325 325 324 326 325 324
303 304 304 305 305 306 306 305 303 302 303 308 309 309 309 306 306 307 308 309 310 310 310 311 314 317 319 321 321 324 326 328 327 327 327 326 328 327 326 325 325 325 325 324 324
304 303 304 304 305 305 304 303 302 305 306 309 310 310 308 306 307 307 308 309 310 312 311 310 311 316 319 320 323 324 327 327 327 325 324 324 327 326 325 325 325 326 327 325 325
305 304 303 304 305 304 303 303 306 307 308 309 308 308 307 305 308 310 309 311 312 313 314 312 313 316 318 322 328 326 326 327 329 327 322 324 325 325 324 325 326 327 326 326 326
305 304 304 304 304 304 304 306 308 309 307 308 307 309 307 306 306 307 310 312 313 313 315 313 313 317 319 321 323 325 327 328 327 326 325 326 326 326 326 327 328 328 327 326 329
304 304 304 304 304 303 304 306 306 306 307 306 306 306 305 305 307 308 307 311 314 314 314 315 314 317 318 319 320 323 325 327 327 326 327 325 325 328 328 328 328 327 326 328 330
302 303 303 304 303 305 305 305 305 305 308 306 306 307 307 307 308 308 308 309 313 315 314 316 316 314 316 319 320 321 323 325 326 325 325 324 325 327 328 328 327 326 326 325 329
303 303 303 303 305 305 306 305 304 306 309 305 309 310 310 310 312 310 310 308 311 314 314 315 316 316 315 316 319 321 320 320 320 322 324 323 329 329 329 328 328 327 326 327 331
304 304 303 302 304 305 304 305 305 306 305 306 311 310 309 311 311 312 311 311 309 313 314 315 315 316 317 316 317 318 318 319 320 321 323 323 326 328 328 328 328 327 326 328 332
303 302 302 304 303 304 304 305 306 310 305 305 308 308 308 309 310 310 311 312 310 309 314 315 314 315 317 316 316 317 318 320 321 322 326 325 327 329 330 330 329 327 325 330 334
302 301 303 304 305 304 305 306 309 306 304 305 308 307 307 307 308 310 310 313 313 310 313 316 315 314 315 316 316 317 320 324 326 328 329 327 329 330 328 327 325 325 327 333 334
300 303 304 305 305 304 305 308 305 303 304 306 306 305 305 307 307 306 308 315 314 310 312 317 318 315 314 315 317 318 321 322 326 331 330 328 330 329 326 326 326 325 325 332 334
302 305 306 305 304 304 308 307 305 305 305 305 305 304 304 305 305 306 309 310 315 312 313 317 319 316 315 315 317 318 323 322 327 328 326 330 328 325 324 325 324 327 326 332 335
303 305 305 305 305 306 308 305 305 305 305 305 306 304 306 305 305 307 307 311 311 313 314 317 320 319 316 315 317 320 320 324 324 329 330 326 326 326 326 326 325 328 330 333 335
304 306 304 305 303 306 309 307 306 305 305 306 306 305 305 307 305 306 307 309 309 310 312 316 318 321 318 316 317 318 321 322 323 324 328 329 326 324 327 325 328 331 332 336 335
304 308 303 306 308 307 307 304 305 306 306 308 307 307 307 306 306 306 308 310 309 309 313 315 319 323 319 318 318 318 319 322 323 325 324 325 323 327 328 330 330 330 333 336 335
306 305 303 305 308 306 304 304 305 306 305 308 307 306 306 307 308 306 307 310 309 310 313 313 319 322 321 319 317 319 319 321 322 325 325 324 321 321 328 329 332 334 335 335 334
306 309 306 305 304 303 303 305 305 304 305 306 308 308 308 308 307 307 306 307 309 311 309 312 317 320 322 320 319 319 318 320 322 323 323 322 320 323 328 329 332 334 334 334 335
305 306 304 307 306 302 303 303 305 306 305 306 307 308 308 309 308 307 307 308 309 311 311 315 317 318 319 319 318 321 318 318 320 321 322 320 320 320 325 327 330 331 334 334 335
305 304 303 304 302 303 304 306 306 306 305 306 307 307 307 307 308 309 308 309 312 308 315 315 320 317 319 317 318 320 320 319 319 320 320 320 320 320 321 322 322 331 333 334 335
302 303 303 304 304 304 306 304 304 304 305 305 307 308 310 308 308 308 308 309 310 312 313 315 317 319 318 317 319 321 320 320 319 319 319 320 321 320 321 323 323 327 331 333 335
Wind_Speed
16 17 17 17 19 19 19 17 16 15 15 16 16 17 21 21 23 13 14 12 7 13 7 8 13 13 17 14 12 12 11 13 19 14 12 5 9 2 2 10 10 10 11 8 8
16 16 17 16 16 18 18 18 17 17 16 16 17 18 20 19 20 19 16 19 19 16 11 18 15 17 15 17 11 13 15 21 20 14 14 8 9 8 9 12 16 17 12 10 11
18 19 18 17 17 17 18 18 17 17 16 17 16 15 16 15 11 10 6 7 11 27 27 22 19 18 21 18 21 21 23 19 22 18 12 15 18 16 17 15 19 17 16 17 20
17 18 19 20 19 18 17 16 16 16 17 15 16 14 14 6 9 7 11 3 8 14 25 25 19 22 22 26 23 28 25 24 24 23 19 19 21 21 19 19 24 21 17 22 23
16 16 17 18 21 21 21 19 17 16 16 16 15 14 9 9 15 3 11 8 4 7 24 26 24 24 28 24 27 31 27 23 24 26 20 20 24 29 25 22 24 23 20 21 21
17 17 18 19 19 21 23 24 23 22 20 16 13 11 11 17 6 12 13 13 9 8 14 24 15 22 23 29 29 25 28 28 26 25 22 22 26 27 24 23 25 23 22 21 22
19 19 20 20 20 20 21 23 25 24 24 17 13 10 14 21 14 12 17 15 10 10 12 14 26 8 15 21 23 25 26 25 23 25 26 22 27 28 21 25 23 20 19 21 21
21 21 22 22 22 22 22 24 25 27 22 16 11 10 10 12 15 19 19 21 20 20 14 11 13 18 19 14 14 21 25 24 24 22 23 18 31 23 19 21 20 18 20 21 24
22 21 22 22 23 24 26 28 25 14 11 6 7 10 11 4 9 14 13 18 15 17 17 14 15 17 14 19 18 24 24 30 25 22 20 19 30 21 16 17 15 19 21 21 21
22 23 22 22 23 27 31 22 6 2 1 5 5 6 8 7 3 5 8 10 11 13 14 17 12 14 19 20 29 23 26 27 27 21 16 26 29 20 18 21 20 20 20 22 21
24 24 23 23 23 28 19 11 5 7 8 12 8 15 20 20 10 15 4 4 10 17 23 23 20 27 41 34 27 26 29 26 23 18 22 24 25 23 18 20 23 22 21 22 20
25 24 23 23 24 23 10 7 3 6 12 17 24 25 31 29 13 19 14 9 12 22 25 19 30 47 31 28 29 29 30 29 25 22 24 21 27 26 23 22 23 22 19 20 17
26 24 22 21 22 4 13 7 2 10 8 16 12 13 11 12 16 22 19 20 19 20 28 34 43 26 32 30 30 32 31 27 30 21 22 22 27 29 25 27 18 17 21 22 16
27 26 23 20 9 9 9 2 6 8 6 5 4 5 6 6 6 19 14 23 20 24 25 33 36 28 32 34 34 33 27 26 25 22 24 22 25 25 21 19 21 21 20 16 11
27 27 22 14 13 6 5 4 7 5 6 5 6 3 2 7 8 8 10 17 28 23 17 32 28 36 30 41 28 33 20 23 22 21 25 29 20 22 21 22 24 18 20 13 4
33 27 20 6 6 9 8 7 5 5 9 1 2 4 7 5 4 8 14 12 16 27 23 29 13 23 40 22 28 21 17 19 19 17 21 24 23 22 20 27 25 18 17 9 8
34 21 5 2 5 6 4 7 5 8 6 1 7 11 12 9 6 10 11 11 13 22 26 22 30 18 21 28 24 25 21 10 12 14 19 19 17 18 16 13 13 10 10 10 9
26 5 6 5 5 3 4 4 7 2 4 14 12 18 18 8 5 6 9 13 15 24 19 20 21 31 20 31 24 31 26 13 17 15 16 18 12 16 13 21 23 21 12 9 10
12 1 9 11 3 3 3 5 8 9 7 10 15 16 16 6 6 6 2 4 8 15 21 19 25 28 22 24 32 26 27 25 13 12 8 14 17 15 19 21 15 12 15 11 11
8 2 12 7 3 3 3 5 4 6 11 13 15 10 14 8 10 5 1 4 11 17 13 6 10 20 31 24 27 25 24 21 16 19 16 12 12 10 7 11 13 14 14 14 13
6 3 9 4 4 2 3 7 10 10 11 7 13 14 14 13 13 11 2 10 3 13 12 13 9 15 23 26 27 21 21 21 17 13 16 11 8 9 13 9 11 13 14 14 16
6 3 7 3 2 0 5 9 9 10 9 9 9 9 10 12 12 8 6 3 8 6 6 7 6 11 27 22 25 28 22 27 13 21 12 10 5 2 6 1 10 12 11 14 17
5 3 2 6 3 4 7 10 7 13 11 7 10 7 10 11 6 5 5 10 7 0 2 4 9 9 12 23 22 28 24 26 17 15 21 12 2 6 4 5 5 7 12 16 19
4 4 2 2 0 4 8 6 8 7 8 9 10 11 11 10 9 7 7 2 4 8 7 5 5 14 8 19 11 23 25 24 24 12 12 15 12 7 7 9 8 7 12 16 18
4 2 3 4 5 10 9 6 11 9 6 12 4 8 11 7 15 11 5 8 2 5 8 4 7 19 19 9 7 13 24 25 25 22 16 12 15 15 8 9 8 4 13 16 18
4 4 3 10 7 11 1 8 11 12 8 9 11 16 14 13 14 16 16 11 4 6 5 4 1 11 20 15 11 8 10 23 24 22 20 15 17 14 17 15 9 3 11 16 17
1 4 3 7 5 7 6 8 12 16 11 8 13 15 15 10 12 17 17 16 10 7 4 4 4 5 19 19 10 11 15 15 19 22 19 19 20 15 15 8 9 7 7 15 18
Wind_Direction
2 356 354 353 349 348 349 344 337 338 336 329 327 318 317 322 317 296 252 228 246 224 182 173 201 223 213 213 217 227 235 246 248 255 257 185 234 166 300 276 294 268 276 311 329
357 355 352 346 344 341 339 340 337 336 331 331 326 325 329 333 313 277 256 256 246 238 219 204 201 206 216 226 206 211 229 234 248 261 267 286 263 285 270 267 276 275 232 259 282
352 350 347 345 344 337 334 333 331 329 327 328 324 325 321 333 292 256 189 168 221 236 231 224 226 205 227 226 215 222 238 240 247 248 261 285 277 281 274 270 274 296 304 290 291
346 344 343 341 338 335 331 327 322 319 318 315 318 320 327 309 250 122 165 131 344 235 211 216 218 218 229 234 228 239 240 244 255 253 250 266 282 282 270 277 281 291 290 290 292
343 339 338 336 333 330 325 324 320 316 310 307 309 322 334 233 243 212 229 288 329 182 207 203 211 223 226 235 238 244 248 256 250 267 265 263 268 269 273 282 279 286 288 279 279
343 340 339 335 330 325 322 321 318 311 303 294 293 301 273 252 275 264 283 287 267 241 211 217 225 228 243 238 242 249 249 249 258 253 257 258 265 269 271 276 278 281 284 285 285
342 338 338 333 329 323 318 314 312 315 304 290 272 260 260 251 267 279 281 277 255 256 232 216 222 228 228 252 256 257 257 257 247 253 254 261 262 260 265 267 272 284 285 283 284
338 338 335 334 331 325 318 312 310 306 297 285 251 236 258 252 265 268 271 263 253 247 247 249 227 241 246 267 267 241 239 247 233 227 240 242 261 263 270 269 279 279 287 292 287
335 333 332 333 331 328 321 317 311 297 291 236 194 216 272 245 247 264 251 252 248 231 231 237 227 230 221 234 246 225 234 230 242 232 243 222 259 256 263 271 272 285 292 292 286
333 332 332 333 332 333 329 326 298 242 53 179 243 219 242 247 291 235 283 237 237 216 209 217 213 214 222 216 226 222 228 247 257 230 214 245 250 254 257 269 276 285 290 286 283
339 333 329 332 332 331 337 324 244 204 217 261 274 248 287 284 263 261 217 214 212 224 204 197 203 214 218 218 234 247 245 240 242 243 252 260 260 260 263 273 279 289 287 288 280
344 341 336 333 330 328 338 344 8 334 295 271 258 262 262 271 276 269 260 220 200 217 208 189 215 222 218 222 225 236 245 247 253 242 250 249 267 268 262 271 279 275 281 279 289
346 343 340 331 330 330 331 304 305 330 265 290 267 258 260 239 251 255 244 227 231 228 213 214 220 216 219 221 224 228 235 241 251 261 248 259 266 268 264 258 271 263 265 276 271
342 339 336 327 303 328 302 277 293 324 283 257 192 198 191 222 235 236 254 224 222 234 228 228 232 217 222 225 219 231 223 244 256 254 251 246 269 265 274 273 262 267 270 257 255
338 332 327 318 296 280 332 284 298 245 282 94 133 89 205 242 320 78 179 231 236 220 220 222 225 227 219 224 218 237 230 237 240 248 258 249 259 266 261 265 261 261 264 240 234
337 332 322 312 271 280 285 281 248 233 245 280 129 307 285 224 319 338 313 213 243 241 239 237 214 224 230 217 220 224 221 230 236 242 242 246 252 258 264 261 265 257 250 184 170
339 335 15 322 335 317 295 242 229 249 35 44 330 323 307 292 314 306 328 259 218 210 229 228 238 235 230 209 202 201 190 196 218 222 241 242 247 251 267 240 258 250 243 156 155
344 50 356 345 311 312 245 202 248 349 296 337 318 304 284 339 305 299 281 327 214 229 221 223 223 223 209 215 190 195 192 203 214 226 240 223 247 232 242 252 248 250 242 146 163
2 40 19 9 9 185 244 237 355 2 338 316 305 276 272 224 286 281 315 298 303 251 241 222 233 192 221 213 199 195 211 210 253 229 279 210 230 274 257 254 245 233 213 181 163
346 274 35 2 35 292 289 321 317 326 308 302 293 287 294 312 304 314 198 111 325 336 333 291 269 222 196 206 205 197 196 202 222 233 226 246 230 237 197 229 229 223 201 177 159
330 272 21 40 49 321 317 335 329 324 322 309 305 299 281 285 293 309 300 140 88 319 311 280 258 235 184 204 192 199 198 213 211 227 213 229 230 216 243 239 215 194 172 161 164
324 335 13 308 350 173 322 331 315 311 345 295 285 286 294 295 288 282 290 45 176 304 310 321 278 273 198 202 216 200 208 197 201 199 255 217 217 6 286 29 220 199 154 159 162
341 300 28 309 348 344 321 304 288 311 338 328 298 308 302 294 293 283 285 137 200 165 325 14 235 233 220 198 206 200 207 195 212 198 208 222 208 235 135 133 138 141 150 155 154
324 326 346 29 86 335 329 295 324 317 321 303 288 303 329 308 275 271 281 74 158 255 208 231 264 245 194 190 191 208 208 195 209 217 188 212 207 221 161 112 108 127 155 157 161
13 11 350 312 325 324 297 284 301 359 315 309 274 297 350 307 313 282 278 311 360 286 213 248 262 233 251 289 296 280 210 211 207 218 226 199 220 226 215 112 66 111 163 167 167
349 337 325 287 282 298 313 293 324 339 317 302 308 325 313 294 294 298 311 307 341 320 314 230 260 268 246 231 246 249 247 215 214 214 224 241 227 243 268 291 295 174 187 182 176
21 263 280 292 303 318 311 312 313 317 289 279 321 310 297 308 322 297 283 277 262 267 288 277 292 225 236 215 222 246 216 219 220 216 216 221 237 248 246 268 242 243 200 201 187